Weather History for Moab, UT

Change the Weather History Date:

Wednesday, November 21, 2012

  Actual Average Record
Temperature  
Mean Temperature 41 °F 36 °F  
Max Temperature 58 °F 47 °F 69 °F (1950)
Min Temperature 24 °F 25 °F 12 °F (1929)
Degree Days  
Heating Degree Days 24 29  
Month to date heating degree days 463 509  
Since 1 July heating degree days 810 928  
Cooling Degree Days 0 0  
Month to date cooling degree days 0 0  
Year to date cooling degree days 1513 1289  
Moisture  
Dew Point 21 °F    
Average Humidity 47    
Maximum Humidity 69    
Minimum Humidity 24    
Precipitation  
Precipitation 0.00 in 0.02 in 0.45 in (1983)
Month to date precipitation 0.06 0.49  
Year to date precipitation 2.66 8.00  
Sea Level Pressure  
Sea Level Pressure 30.11 in    
Wind  
Wind Speed 3 mph (WNW)    
Max Wind Speed 10 mph    
Max Gust Speed 13 mph    
Visibility 10 miles    
Events      
T = Trace of Precipitation, MM = Missing Value Source: NWS Daily Summary

Daily Weather History Graph

Daily Weather History Graph

Search for Another Location

Airport:

Trip Planner

Search our weather history database for the weather conditions in past years. The results will help you decide how hot, cold, wet, or windy it might be!

Date:

Astronomy

Nov. 21, 2012 Rise Set
Actual Time 7:08 AM MST 5:01 PM MST
Civil Twilight 6:39 AM MST 5:30 PM MST
Nautical Twilight 6:07 AM MST 6:02 PM MST
Astronomical Twilight 5:35 AM MST 6:34 PM MST
Moon 1:16 PM MST (11/21) 12:34 AM MST (11/21)
Length of Visible Light 10h 50m
Length of Day
9h 52m
Waxing Gibbous, 62% of the Moon is Illuminated
Nov 21
Waxing Gibbous
Nov 28
Full
Dec 6
Last Quarter
Dec 13
New
Dec 19
First Quarter

Hourly Weather History & Observations

Time (MST) Temp. Windchill Dew Point Humidity Pressure Visibility Wind Dir Wind Speed Gust Speed Precip Events Conditions
12:53 AM 33.1 °F - 21.9 °F 64% 30.16 in 10.0 mi Calm Calm - N/A   Clear
1:53 AM 32.0 °F 28.7 °F 21.9 °F 66% 30.15 in 10.0 mi WSW 3.5 mph - N/A   Clear
2:53 AM 30.9 °F - 21.9 °F 69% 30.15 in 10.0 mi Calm Calm - N/A   Clear
3:53 AM 27.0 °F - 18.0 °F 69% 30.16 in 10.0 mi Calm Calm - N/A   Clear
4:53 AM 26.1 °F - 18.0 °F 71% 30.15 in 10.0 mi Calm Calm - N/A   Clear
5:53 AM 33.1 °F - 23.0 °F 66% 30.15 in 10.0 mi Calm Calm - N/A   Clear
6:53 AM 30.0 °F - 21.0 °F 69% 30.19 in 10.0 mi Calm Calm - N/A   Clear
7:53 AM 32.0 °F - 21.9 °F 66% 30.21 in 10.0 mi Calm Calm - N/A   Clear
8:53 AM 39.2 °F 37.0 °F 24.8 °F 56% 30.18 in 10.0 mi Variable 3.5 mph - N/A   Clear
9:53 AM 44.1 °F - 25.0 °F 47% 30.17 in 10.0 mi Calm Calm - N/A   Clear
10:53 AM 51.1 °F - 25.0 °F 36% 30.14 in 10.0 mi Calm Calm - N/A   Clear
11:53 AM 53.1 °F - 25.0 °F 34% 30.10 in 10.0 mi NNW 9.2 mph - N/A   Clear
12:53 PM 55.0 °F - 21.9 °F 28% 30.07 in 10.0 mi NW 5.8 mph - N/A   Clear
1:53 PM 57.0 °F - 21.9 °F 26% 30.04 in 10.0 mi NW 5.8 mph - N/A   Clear
2:53 PM 57.9 °F - 23.0 °F 26% 30.01 in 10.0 mi NW 3.5 mph - N/A   Clear
3:53 PM 57.0 °F - 21.9 °F 26% 30.03 in 10.0 mi NW 9.2 mph - N/A   Clear
4:53 PM 51.1 °F - 19.9 °F 29% 30.04 in 10.0 mi NW 9.2 mph - N/A   Clear
5:53 PM 44.1 °F 40.1 °F 17.1 °F 34% 30.04 in 10.0 mi West 6.9 mph - N/A   Clear
6:53 PM 42.1 °F - 18.0 °F 38% 30.06 in 10.0 mi Calm Calm - N/A   Clear
7:53 PM 36.0 °F 32.1 °F 16.0 °F 44% 30.09 in 10.0 mi West 4.6 mph - N/A   Clear
8:53 PM 36.0 °F - 16.0 °F 44% 30.08 in 10.0 mi Calm Calm - N/A   Clear
9:53 PM 36.0 °F - 17.1 °F 46% 30.08 in 10.0 mi Calm Calm - N/A   Clear
10:53 PM 35.1 °F - 18.0 °F 50% 30.07 in 10.0 mi Calm Calm - N/A   Clear
11:53 PM 37.0 °F - 19.9 °F 50% 30.06 in 10.0 mi Calm Calm - N/A   Clear